Tracking 31030 objects as of 16-Jul-2025
HD Live streaming from Space Station
objects crossing your sky now

STARLINK-32426

Track STARLINK-32426 now!
10-day predictions
STARLINK-32426 is classified as:


NORAD ID: 61681
Int'l Code: 2024-193W
Perigee: 481.7 km
Apogee: 483.0 km
Inclination: 53.2 °
Period: 94.1 minutes
Semi major axis: 6853 km
RCS: Unknown
Launch date: October 26, 2024
Source: United States (US)
Launch site: AIR FORCE EASTERN TEST RANGE (AFETR)
Your satellite tracking list
Your tracking list is empty




NASA's NSSDC Master Catalog

Two Line Element Set (TLE):
1 61681U 24193W   25197.12812287 -.00000653  00000-0 -99190-5 0  9995
2 61681  53.1592 110.1166 0000963  94.1115 265.9996 15.30192143 41475
Source of the keplerian elements: AFSPC